Location: Namasale
(1.5000°N, 32.6167°E)
Time: 17:56:45
(UTC+00:00)

Courier 1B - Pass Details

Date: 28 April 2021
Orbit: 962 x 1209 km, 28.3° (Epoch: 18 May)

Event Time Altitude Azimuth Distance (km) Brightness Sun altitude
Rises 04:30:07 0° 255° (WSW) 4,104 10.1 10.8°
Reaches altitude 10° 04:33:10 10° 261° (W) 3,128 9.6 11.5°
Maximum altitude 04:40:29 44° 331° (NNW) 1,565 8.7 13.3°
Drops below altitude 10° 04:47:31 10° 41° (NE) 2,997 11.1 15.0°
Sets 04:50:23 0° 48° (NE) 3,918 11.8 15.7°
